owner,sensor,date,latitude,longitude,vertical_datum,mass_concentration_of_oxygen_in_sea_water,qcFlag 
TCOON,ioos:station:TCOON:170:1,2019-10-09T16:30:00Z,27.2970,-97.4049,1.0,5.62,11111222 
TCOON,ioos:station:TCOON:170:1,2019-10-09T17:30:00Z,27.2970,-97.4049,1.0,6.09,11111222 
TCOON,ioos:station:TCOON:170:1,2019-10-09T18:30:00Z,27.2970,-97.4049,1.0,6.55,11111222 
TCOON,ioos:station:TCOON:170:1,2019-10-09T19:30:00Z,27.2970,-97.4049,1.0,6.97,11111222 
TCOON,ioos:station:TCOON:170:1,2019-10-09T20:30:00Z,27.2970,-97.4049,1.0,7.07,11111222 
TCOON,ioos:station:TCOON:170:1,2019-10-09T21:30:00Z,27.2970,-97.4049,1.0,7.13,11111222 
TCOON,ioos:station:TCOON:170:1,2019-10-09T22:30:00Z,27.2970,-97.4049,1.0,7.0,11111222 
TCOON,ioos:station:TCOON:170:1,2019-10-10T02:00:00Z,27.2970,-97.4049,1.0,5.7,11111222 
TCOON,ioos:station:TCOON:170:1,2019-10-10T02:30:00Z,27.2970,-97.4049,1.0,5.61,11111222 
TCOON,ioos:station:TCOON:170:1,2019-10-10T03:30:00Z,27.2970,-97.4049,1.0,5.52,11111222 
TCOON,ioos:station:TCOON:170:1,2019-10-10T04:30:00Z,27.2970,-97.4049,1.0,5.59,11111222 
TCOON,ioos:station:TCOON:170:1,2019-10-10T06:00:00Z,27.2970,-97.4049,1.0,5.53,11111222 
TCOON,ioos:station:TCOON:170:1,2019-10-10T06:30:00Z,27.2970,-97.4049,1.0,5.5,11111222 
TCOON,ioos:station:TCOON:170:1,2019-10-10T07:30:00Z,27.2970,-97.4049,1.0,5.5,11111222 
TCOON,ioos:station:TCOON:170:1,2019-10-10T08:30:00Z,27.2970,-97.4049,1.0,5.54,11111222 
TCOON,ioos:station:TCOON:170:1,2019-10-10T09:30:00Z,27.2970,-97.4049,1.0,5.5,11111222 
TCOON,ioos:station:TCOON:170:1,2019-10-10T10:30:00Z,27.2970,-97.4049,1.0,5.33,11111222 
TCOON,ioos:station:TCOON:170:1,2019-10-10T11:30:00Z,27.2970,-97.4049,1.0,5.18,11111222 
TCOON,ioos:station:TCOON:170:1,2019-10-10T12:30:00Z,27.2970,-97.4049,1.0,5.18,11111222 
TCOON,ioos:station:TCOON:170:1,2019-10-10T13:30:00Z,27.2970,-97.4049,1.0,5.15,11111222 
TCOON,ioos:station:TCOON:170:1,2019-10-10T14:30:00Z,27.2970,-97.4049,1.0,5.28,11111222 
TCOON,ioos:station:TCOON:170:1,2019-10-10T15:30:00Z,27.2970,-97.4049,1.0,5.75,11111222 
TCOON,ioos:station:TCOON:170:1,2019-10-10T16:30:00Z,27.2970,-97.4049,1.0,6.28,11111222 
TCOON,ioos:station:TCOON:170:1,2019-10-10T17:30:00Z,27.2970,-97.4049,1.0,6.66,11111222 
TCOON,ioos:station:TCOON:170:1,2019-10-10T18:30:00Z,27.2970,-97.4049,1.0,6.84,11111222 
TCOON,ioos:station:TCOON:170:1,2019-10-10T19:30:00Z,27.2970,-97.4049,1.0,7.01,11111222 
TCOON,ioos:station:TCOON:170:1,2019-10-10T20:30:00Z,27.2970,-97.4049,1.0,7.11,11111222 
TCOON,ioos:station:TCOON:170:1,2019-10-10T21:30:00Z,27.2970,-97.4049,1.0,7.0,11111222 
TCOON,ioos:station:TCOON:170:1,2019-10-10T22:30:00Z,27.2970,-97.4049,1.0,6.78,11111222 
TCOON,ioos:station:TCOON:170:1,2019-10-10T23:30:00Z,27.2970,-97.4049,1.0,6.63,11111222 
TCOON,ioos:station:TCOON:170:1,2019-10-11T00:30:00Z,27.2970,-97.4049,1.0,6.25,11111222 
TCOON,ioos:station:TCOON:170:1,2019-10-11T01:30:00Z,27.2970,-97.4049,1.0,5.99,11111222 
TCOON,ioos:station:TCOON:170:1,2019-10-11T02:30:00Z,27.2970,-97.4049,1.0,5.77,11111222 
TCOON,ioos:station:TCOON:170:1,2019-10-11T03:30:00Z,27.2970,-97.4049,1.0,5.55,11111222 
TCOON,ioos:station:TCOON:170:1,2019-10-11T04:30:00Z,27.2970,-97.4049,1.0,5.4,11111222 
TCOON,ioos:station:TCOON:170:1,2019-10-11T05:30:00Z,27.2970,-97.4049,1.0,5.47,11111222 
TCOON,ioos:station:TCOON:170:1,2019-10-11T06:30:00Z,27.2970,-97.4049,1.0,5.51,11111222 
TCOON,ioos:station:TCOON:170:1,2019-10-11T07:30:00Z,27.2970,-97.4049,1.0,5.57,11111222 
TCOON,ioos:station:TCOON:170:1,2019-10-11T08:30:00Z,27.2970,-97.4049,1.0,5.54,11111222 
TCOON,ioos:station:TCOON:170:1,2019-10-11T09:30:00Z,27.2970,-97.4049,1.0,5.27,11111222 
TCOON,ioos:station:TCOON:170:1,2019-10-11T10:30:00Z,27.2970,-97.4049,1.0,5.08,11111222 
TCOON,ioos:station:TCOON:170:1,2019-10-11T11:30:00Z,27.2970,-97.4049,1.0,5.26,11111222 
TCOON,ioos:station:TCOON:170:1,2019-10-11T12:30:00Z,27.2970,-97.4049,1.0,5.21,11111222 
TCOON,ioos:station:TCOON:170:1,2019-10-11T13:30:00Z,27.2970,-97.4049,1.0,5.31,11111222 
TCOON,ioos:station:TCOON:170:1,2019-10-11T15:00:00Z,27.2970,-97.4049,1.0,5.24,11111222 
TCOON,ioos:station:TCOON:170:1,2019-10-11T16:00:00Z,27.2970,-97.4049,1.0,5.27,11111222 
TCOON,ioos:station:TCOON:170:1,2019-10-11T18:30:00Z,27.2970,-97.4049,1.0,5.77,11111222 
TCOON,ioos:station:TCOON:170:1,2019-10-11T20:30:00Z,27.2970,-97.4049,1.0,5.57,11111222 
TCOON,ioos:station:TCOON:170:1,2019-10-11T21:30:00Z,27.2970,-97.4049,1.0,6.27,11111222 
TCOON,ioos:station:TCOON:170:1,2019-10-11T22:30:00Z,27.2970,-97.4049,1.0,6.33,11111222 
TCOON,ioos:station:TCOON:170:1,2019-10-11T23:30:00Z,27.2970,-97.4049,1.0,6.29,11111222 
TCOON,ioos:station:TCOON:170:1,2019-10-12T00:30:00Z,27.2970,-97.4049,1.0,6.18,11111222 
TCOON,ioos:station:TCOON:170:1,2019-10-12T01:30:00Z,27.2970,-97.4049,1.0,6.13,11111222 
TCOON,ioos:station:TCOON:170:1,2019-10-12T02:30:00Z,27.2970,-97.4049,1.0,6.13,11111222 
TCOON,ioos:station:TCOON:170:1,2019-10-12T03:30:00Z,27.2970,-97.4049,1.0,6.01,11111222 
TCOON,ioos:station:TCOON:170:1,2019-10-12T04:30:00Z,27.2970,-97.4049,1.0,6.03,11111222 
TCOON,ioos:station:TCOON:170:1,2019-10-12T06:00:00Z,27.2970,-97.4049,1.0,6.13,11111222 
TCOON,ioos:station:TCOON:170:1,2019-10-12T06:30:00Z,27.2970,-97.4049,1.0,6.16,11111222 
TCOON,ioos:station:TCOON:170:1,2019-10-12T07:30:00Z,27.2970,-97.4049,1.0,6.12,11111222 
TCOON,ioos:station:TCOON:170:1,2019-10-12T08:30:00Z,27.2970,-97.4049,1.0,6.12,11111222 
TCOON,ioos:station:TCOON:170:1,2019-10-12T09:30:00Z,27.2970,-97.4049,1.0,6.15,11111222 
TCOON,ioos:station:TCOON:170:1,2019-10-12T10:30:00Z,27.2970,-97.4049,1.0,6.11,11111222 
TCOON,ioos:station:TCOON:170:1,2019-10-12T11:30:00Z,27.2970,-97.4049,1.0,6.12,11111222 
TCOON,ioos:station:TCOON:170:1,2019-10-12T12:30:00Z,27.2970,-97.4049,1.0,6.07,11111222 
TCOON,ioos:station:TCOON:170:1,2019-10-12T13:30:00Z,27.2970,-97.4049,1.0,6.07,11111222 
TCOON,ioos:station:TCOON:170:1,2019-10-12T14:30:00Z,27.2970,-97.4049,1.0,6.25,11111222 
TCOON,ioos:station:TCOON:170:1,2019-10-12T15:30:00Z,27.2970,-97.4049,1.0,6.45,11111222 
TCOON,ioos:station:TCOON:170:1,2019-10-12T16:30:00Z,27.2970,-97.4049,1.0,6.77,11111222 
TCOON,ioos:station:TCOON:170:1,2019-10-12T17:30:00Z,27.2970,-97.4049,1.0,7.04,11111222 
TCOON,ioos:station:TCOON:170:1,2019-10-12T18:30:00Z,27.2970,-97.4049,1.0,7.32,11111222 
TCOON,ioos:station:TCOON:170:1,2019-10-12T19:30:00Z,27.2970,-97.4049,1.0,7.66,11111222 
TCOON,ioos:station:TCOON:170:1,2019-10-12T20:30:00Z,27.2970,-97.4049,1.0,7.78,11111222 
TCOON,ioos:station:TCOON:170:1,2019-10-12T21:30:00Z,27.2970,-97.4049,1.0,8.11,11111222 
TCOON,ioos:station:TCOON:170:1,2019-10-12T22:30:00Z,27.2970,-97.4049,1.0,7.15,11111222 
TCOON,ioos:station:TCOON:170:1,2019-10-12T23:30:00Z,27.2970,-97.4049,1.0,7.75,11111222 
TCOON,ioos:station:TCOON:170:1,2019-10-13T00:30:00Z,27.2970,-97.4049,1.0,7.62,11111222 
TCOON,ioos:station:TCOON:170:1,2019-10-13T01:30:00Z,27.2970,-97.4049,1.0,7.26,11111222 
TCOON,ioos:station:TCOON:170:1,2019-10-13T09:30:00Z,27.2970,-97.4049,1.0,6.68,11111222 
TCOON,ioos:station:TCOON:170:1,2019-10-13T10:30:00Z,27.2970,-97.4049,1.0,6.73,11111222 
TCOON,ioos:station:TCOON:170:1,2019-10-13T11:30:00Z,27.2970,-97.4049,1.0,6.64,11111222 
TCOON,ioos:station:TCOON:170:1,2019-10-13T12:30:00Z,27.2970,-97.4049,1.0,6.36,11111222 
TCOON,ioos:station:TCOON:170:1,2019-10-13T13:30:00Z,27.2970,-97.4049,1.0,6.39,11111222 
TCOON,ioos:station:TCOON:170:1,2019-10-13T14:30:00Z,27.2970,-97.4049,1.0,6.42,11111222 
TCOON,ioos:station:TCOON:170:1,2019-10-13T15:30:00Z,27.2970,-97.4049,1.0,6.62,11111222 
TCOON,ioos:station:TCOON:170:1,2019-10-13T17:30:00Z,27.2970,-97.4049,1.0,6.9,11111222 
TCOON,ioos:station:TCOON:170:1,2019-10-13T18:30:00Z,27.2970,-97.4049,1.0,7.19,11111222 
TCOON,ioos:station:TCOON:170:1,2019-10-13T19:30:00Z,27.2970,-97.4049,1.0,7.53,11111222 
TCOON,ioos:station:TCOON:170:1,2019-10-13T20:30:00Z,27.2970,-97.4049,1.0,7.64,11111222 
TCOON,ioos:station:TCOON:170:1,2019-10-13T21:30:00Z,27.2970,-97.4049,1.0,7.72,11111222 
TCOON,ioos:station:TCOON:170:1,2019-10-13T22:30:00Z,27.2970,-97.4049,1.0,6.79,11111222 
TCOON,ioos:station:TCOON:170:1,2019-10-13T23:30:00Z,27.2970,-97.4049,1.0,6.93,11111222 
TCOON,ioos:station:TCOON:170:1,2019-10-14T00:30:00Z,27.2970,-97.4049,1.0,6.95,11111222 
TCOON,ioos:station:TCOON:170:1,2019-10-14T01:30:00Z,27.2970,-97.4049,1.0,6.92,11111222 
TCOON,ioos:station:TCOON:170:1,2019-10-14T02:30:00Z,27.2970,-97.4049,1.0,6.8,11111222 
TCOON,ioos:station:TCOON:170:1,2019-10-14T03:30:00Z,27.2970,-97.4049,1.0,6.74,11111222 
TCOON,ioos:station:TCOON:170:1,2019-10-14T04:30:00Z,27.2970,-97.4049,1.0,6.59,11111222 
TCOON,ioos:station:TCOON:170:1,2019-10-14T06:00:00Z,27.2970,-97.4049,1.0,6.56,11111222 
TCOON,ioos:station:TCOON:170:1,2019-10-14T14:30:00Z,27.2970,-97.4049,1.0,5.96,11111222 
TCOON,ioos:station:TCOON:170:1,2019-10-14T17:30:00Z,27.2970,-97.4049,1.0,7.49,11111222 
TCOON,ioos:station:TCOON:170:1,2019-10-14T18:30:00Z,27.2970,-97.4049,1.0,7.61,11111222 
TCOON,ioos:station:TCOON:170:1,2019-10-14T19:30:00Z,27.2970,-97.4049,1.0,7.06,11111222 
TCOON,ioos:station:TCOON:170:1,2019-10-14T20:30:00Z,27.2970,-97.4049,1.0,7.52,11111222 
TCOON,ioos:station:TCOON:170:1,2019-10-14T21:30:00Z,27.2970,-97.4049,1.0,7.22,11111222 
TCOON,ioos:station:TCOON:170:1,2019-10-14T22:30:00Z,27.2970,-97.4049,1.0,7.32,11111222 
TCOON,ioos:station:TCOON:170:1,2019-10-14T23:30:00Z,27.2970,-97.4049,1.0,7.6,11111222 
TCOON,ioos:station:TCOON:170:1,2019-10-15T00:30:00Z,27.2970,-97.4049,1.0,7.71,11111222 
TCOON,ioos:station:TCOON:170:1,2019-10-15T01:30:00Z,27.2970,-97.4049,1.0,7.69,11111222 
TCOON,ioos:station:TCOON:170:1,2019-10-15T02:30:00Z,27.2970,-97.4049,1.0,7.54,11111222 
TCOON,ioos:station:TCOON:170:1,2019-10-15T03:30:00Z,27.2970,-97.4049,1.0,7.32,11111222 
TCOON,ioos:station:TCOON:170:1,2019-10-15T04:30:00Z,27.2970,-97.4049,1.0,7.14,11111222 
TCOON,ioos:station:TCOON:170:1,2019-10-15T06:00:00Z,27.2970,-97.4049,1.0,6.87,11111222 
TCOON,ioos:station:TCOON:170:1,2019-10-15T06:30:00Z,27.2970,-97.4049,1.0,6.75,11111222 
TCOON,ioos:station:TCOON:170:1,2019-10-15T07:30:00Z,27.2970,-97.4049,1.0,6.48,11111222 
TCOON,ioos:station:TCOON:170:1,2019-10-15T08:30:00Z,27.2970,-97.4049,1.0,6.51,11111222 
TCOON,ioos:station:TCOON:170:1,2019-10-15T09:30:00Z,27.2970,-97.4049,1.0,6.21,11111222 
TCOON,ioos:station:TCOON:170:1,2019-10-15T10:30:00Z,27.2970,-97.4049,1.0,6.28,11111222 
TCOON,ioos:station:TCOON:170:1,2019-10-15T11:30:00Z,27.2970,-97.4049,1.0,6.02,11111222 
TCOON,ioos:station:TCOON:170:1,2019-10-15T12:30:00Z,27.2970,-97.4049,1.0,6.48,11111222 
TCOON,ioos:station:TCOON:170:1,2019-10-15T13:30:00Z,27.2970,-97.4049,1.0,6.2,11111222 
TCOON,ioos:station:TCOON:170:1,2019-10-15T14:30:00Z,27.2970,-97.4049,1.0,6.48,11111222 
TCOON,ioos:station:TCOON:170:1,2019-10-15T15:30:00Z,27.2970,-97.4049,1.0,6.42,11111222 
TCOON,ioos:station:TCOON:170:1,2019-10-15T16:30:00Z,27.2970,-97.4049,1.0,6.64,11111222 
TCOON,ioos:station:TCOON:170:1,2019-10-15T17:30:00Z,27.2970,-97.4049,1.0,6.69,11111222 
TCOON,ioos:station:TCOON:170:1,2019-10-15T18:30:00Z,27.2970,-97.4049,1.0,7.65,11111222 
TCOON,ioos:station:TCOON:170:1,2019-10-15T19:30:00Z,27.2970,-97.4049,1.0,8.21,11111222 
TCOON,ioos:station:TCOON:170:1,2019-10-15T20:30:00Z,27.2970,-97.4049,1.0,8.51,11111222 
TCOON,ioos:station:TCOON:170:1,2019-10-15T21:30:00Z,27.2970,-97.4049,1.0,8.56,11111222 
TCOON,ioos:station:TCOON:170:1,2019-10-15T22:30:00Z,27.2970,-97.4049,1.0,8.62,11111222 
TCOON,ioos:station:TCOON:170:1,2019-10-16T02:30:00Z,27.2970,-97.4049,1.0,6.99,11111222 
TCOON,ioos:station:TCOON:170:1,2019-10-16T03:30:00Z,27.2970,-97.4049,1.0,6.58,11111222 
TCOON,ioos:station:TCOON:170:1,2019-10-16T04:30:00Z,27.2970,-97.4049,1.0,6.38,11111222 
TCOON,ioos:station:TCOON:170:1,2019-10-16T05:30:00Z,27.2970,-97.4049,1.0,6.09,11111222 
TCOON,ioos:station:TCOON:170:1,2019-10-16T06:30:00Z,27.2970,-97.4049,1.0,5.93,11111222 
TCOON,ioos:station:TCOON:170:1,2019-10-16T07:30:00Z,27.2970,-97.4049,1.0,5.82,11111222 
TCOON,ioos:station:TCOON:170:1,2019-10-16T08:30:00Z,27.2970,-97.4049,1.0,5.84,11111222 
TCOON,ioos:station:TCOON:170:1,2019-10-16T09:30:00Z,27.2970,-97.4049,1.0,5.61,11111222 
TCOON,ioos:station:TCOON:170:1,2019-10-16T10:30:00Z,27.2970,-97.4049,1.0,5.45,11111222 
TCOON,ioos:station:TCOON:170:1,2019-10-16T11:30:00Z,27.2970,-97.4049,1.0,5.26,11111222 
TCOON,ioos:station:TCOON:170:1,2019-10-16T12:30:00Z,27.2970,-97.4049,1.0,4.98,11111222 
TCOON,ioos:station:TCOON:170:1,2019-10-16T13:30:00Z,27.2970,-97.4049,1.0,5.36,11111222 
TCOON,ioos:station:TCOON:170:1,2019-10-16T14:30:00Z,27.2970,-97.4049,1.0,5.62,11111222 
TCOON,ioos:station:TCOON:170:1,2019-10-16T15:30:00Z,27.2970,-97.4049,1.0,5.81,11111222 
TCOON,ioos:station:TCOON:170:1,2019-10-16T16:30:00Z,27.2970,-97.4049,1.0,5.59,11111222 
TCOON,ioos:station:TCOON:170:1,2019-10-16T17:30:00Z,27.2970,-97.4049,1.0,6.4,11111222 
TCOON,ioos:station:TCOON:170:1,2019-10-16T18:30:00Z,27.2970,-97.4049,1.0,7.13,11111222 
TCOON,ioos:station:TCOON:170:1,2019-10-16T19:30:00Z,27.2970,-97.4049,1.0,6.89,11111222 
TCOON,ioos:station:TCOON:170:1,2019-10-16T20:30:00Z,27.2970,-97.4049,1.0,6.79,11111222 
TCOON,ioos:station:TCOON:170:1,2019-10-16T21:30:00Z,27.2970,-97.4049,1.0,6.66,11111222 
TCOON,ioos:station:TCOON:170:1,2019-10-16T22:30:00Z,27.2970,-97.4049,1.0,6.36,11111222 
TCOON,ioos:station:TCOON:170:1,2019-10-16T23:30:00Z,27.2970,-97.4049,1.0,6.42,11111222 
TCOON,ioos:station:TCOON:170:1,2019-10-17T00:30:00Z,27.2970,-97.4049,1.0,5.12,11111222 
TCOON,ioos:station:TCOON:170:1,2019-10-17T01:30:00Z,27.2970,-97.4049,1.0,6.47,11111222 
TCOON,ioos:station:TCOON:170:1,2019-10-17T02:30:00Z,27.2970,-97.4049,1.0,6.32,11111222 
TCOON,ioos:station:TCOON:170:1,2019-10-17T03:30:00Z,27.2970,-97.4049,1.0,6.08,11111222 
TCOON,ioos:station:TCOON:170:1,2019-10-17T04:30:00Z,27.2970,-97.4049,1.0,5.97,11111222 
TCOON,ioos:station:TCOON:170:1,2019-10-17T05:30:00Z,27.2970,-97.4049,1.0,6.19,11111222 
TCOON,ioos:station:TCOON:170:1,2019-10-17T06:30:00Z,27.2970,-97.4049,1.0,6.02,11111222 
TCOON,ioos:station:TCOON:170:1,2019-10-17T07:30:00Z,27.2970,-97.4049,1.0,6.09,11111222 
TCOON,ioos:station:TCOON:170:1,2019-10-17T08:30:00Z,27.2970,-97.4049,1.0,5.87,11111222 
TCOON,ioos:station:TCOON:170:1,2019-10-17T09:30:00Z,27.2970,-97.4049,1.0,5.8,11111222 
TCOON,ioos:station:TCOON:170:1,2019-10-17T10:30:00Z,27.2970,-97.4049,1.0,5.87,11111222 
TCOON,ioos:station:TCOON:170:1,2019-10-17T11:30:00Z,27.2970,-97.4049,1.0,5.77,11111222 
TCOON,ioos:station:TCOON:170:1,2019-10-17T12:30:00Z,27.2970,-97.4049,1.0,5.77,11111222 
TCOON,ioos:station:TCOON:170:1,2019-10-17T13:30:00Z,27.2970,-97.4049,1.0,5.84,11111222 
TCOON,ioos:station:TCOON:170:1,2019-10-17T14:30:00Z,27.2970,-97.4049,1.0,5.89,11111222 
TCOON,ioos:station:TCOON:170:1,2019-10-17T15:30:00Z,27.2970,-97.4049,1.0,6.14,11111222 
TCOON,ioos:station:TCOON:170:1,2019-10-17T16:30:00Z,27.2970,-97.4049,1.0,6.51,11111222 
TCOON,ioos:station:TCOON:170:1,2019-10-17T17:30:00Z,27.2970,-97.4049,1.0,6.8,11111222 
TCOON,ioos:station:TCOON:170:1,2019-10-17T18:30:00Z,27.2970,-97.4049,1.0,7.16,11111222 
TCOON,ioos:station:TCOON:170:1,2019-10-17T19:30:00Z,27.2970,-97.4049,1.0,7.38,11111222 
TCOON,ioos:station:TCOON:170:1,2019-10-17T20:30:00Z,27.2970,-97.4049,1.0,7.55,11111222 
TCOON,ioos:station:TCOON:170:1,2019-10-17T21:30:00Z,27.2970,-97.4049,1.0,7.74,11111222 
TCOON,ioos:station:TCOON:170:1,2019-10-17T22:30:00Z,27.2970,-97.4049,1.0,7.83,11111222 
TCOON,ioos:station:TCOON:170:1,2019-10-17T23:30:00Z,27.2970,-97.4049,1.0,7.68,11111222 
TCOON,ioos:station:TCOON:170:1,2019-10-18T00:30:00Z,27.2970,-97.4049,1.0,7.34,11111222 
TCOON,ioos:station:TCOON:170:1,2019-10-18T01:30:00Z,27.2970,-97.4049,1.0,7.21,11111222 
TCOON,ioos:station:TCOON:170:1,2019-10-18T02:30:00Z,27.2970,-97.4049,1.0,7.01,11111222 
TCOON,ioos:station:TCOON:170:1,2019-10-18T03:30:00Z,27.2970,-97.4049,1.0,6.9,11111222 
TCOON,ioos:station:TCOON:170:1,2019-10-18T04:30:00Z,27.2970,-97.4049,1.0,6.76,11111222 
TCOON,ioos:station:TCOON:170:1,2019-10-18T05:30:00Z,27.2970,-97.4049,1.0,6.71,11111222 
TCOON,ioos:station:TCOON:170:1,2019-10-18T06:30:00Z,27.2970,-97.4049,1.0,6.29,11111222 
TCOON,ioos:station:TCOON:170:1,2019-10-18T07:30:00Z,27.2970,-97.4049,1.0,6.07,11111222 
TCOON,ioos:station:TCOON:170:1,2019-10-18T08:30:00Z,27.2970,-97.4049,1.0,6.24,11111222 
TCOON,ioos:station:TCOON:170:1,2019-10-18T09:30:00Z,27.2970,-97.4049,1.0,6.24,11111222 
TCOON,ioos:station:TCOON:170:1,2019-10-18T10:30:00Z,27.2970,-97.4049,1.0,6.12,11111222 
TCOON,ioos:station:TCOON:170:1,2019-10-18T11:30:00Z,27.2970,-97.4049,1.0,6.23,11111222 
TCOON,ioos:station:TCOON:170:1,2019-10-18T12:30:00Z,27.2970,-97.4049,1.0,6.03,11111222 
TCOON,ioos:station:TCOON:170:1,2019-10-18T13:30:00Z,27.2970,-97.4049,1.0,5.8,11111222 
TCOON,ioos:station:TCOON:170:1,2019-10-18T14:30:00Z,27.2970,-97.4049,1.0,5.8,11111222 
TCOON,ioos:station:TCOON:170:1,2019-10-18T15:30:00Z,27.2970,-97.4049,1.0,6.69,11111222 
TCOON,ioos:station:TCOON:170:1,2019-10-18T18:30:00Z,27.2970,-97.4049,1.0,7.7,11111222 
TCOON,ioos:station:TCOON:170:1,2019-10-18T19:30:00Z,27.2970,-97.4049,1.0,7.83,11111222 
TCOON,ioos:station:TCOON:170:1,2019-10-18T20:30:00Z,27.2970,-97.4049,1.0,8.14,11111222 
TCOON,ioos:station:TCOON:170:1,2019-10-18T21:30:00Z,27.2970,-97.4049,1.0,8.61,11111222 
TCOON,ioos:station:TCOON:170:1,2019-10-18T22:30:00Z,27.2970,-97.4049,1.0,9.27,11111222 
TCOON,ioos:station:TCOON:170:1,2019-10-18T23:30:00Z,27.2970,-97.4049,1.0,8.48,11111222 
TCOON,ioos:station:TCOON:170:1,2019-10-19T00:30:00Z,27.2970,-97.4049,1.0,7.78,11111222 
TCOON,ioos:station:TCOON:170:1,2019-10-19T01:30:00Z,27.2970,-97.4049,1.0,7.62,11111222 
TCOON,ioos:station:TCOON:170:1,2019-10-19T02:30:00Z,27.2970,-97.4049,1.0,7.5,11111222 
TCOON,ioos:station:TCOON:170:1,2019-10-19T03:30:00Z,27.2970,-97.4049,1.0,7.03,11111222 
TCOON,ioos:station:TCOON:170:1,2019-10-19T04:30:00Z,27.2970,-97.4049,1.0,6.93,11111222 
TCOON,ioos:station:TCOON:170:1,2019-10-19T06:00:00Z,27.2970,-97.4049,1.0,6.8,11111222 
TCOON,ioos:station:TCOON:170:1,2019-10-19T06:30:00Z,27.2970,-97.4049,1.0,6.81,11111222 
TCOON,ioos:station:TCOON:170:1,2019-10-19T07:30:00Z,27.2970,-97.4049,1.0,6.6,11111222 
TCOON,ioos:station:TCOON:170:1,2019-10-19T08:30:00Z,27.2970,-97.4049,1.0,6.69,11111222 
TCOON,ioos:station:TCOON:170:1,2019-10-19T09:30:00Z,27.2970,-97.4049,1.0,6.31,11111222 
TCOON,ioos:station:TCOON:170:1,2019-10-19T10:30:00Z,27.2970,-97.4049,1.0,6.09,11111222 
TCOON,ioos:station:TCOON:170:1,2019-10-19T11:30:00Z,27.2970,-97.4049,1.0,5.77,11111222 
TCOON,ioos:station:TCOON:170:1,2019-10-19T12:30:00Z,27.2970,-97.4049,1.0,5.95,11111222 
TCOON,ioos:station:TCOON:170:1,2019-10-19T13:30:00Z,27.2970,-97.4049,1.0,5.73,11111222 
TCOON,ioos:station:TCOON:170:1,2019-10-19T14:30:00Z,27.2970,-97.4049,1.0,6.04,11111222 
TCOON,ioos:station:TCOON:170:1,2019-10-19T15:30:00Z,27.2970,-97.4049,1.0,6.1,11111222 
TCOON,ioos:station:TCOON:170:1,2019-10-19T17:30:00Z,27.2970,-97.4049,1.0,7.1,11111222 
TCOON,ioos:station:TCOON:170:1,2019-10-19T18:30:00Z,27.2970,-97.4049,1.0,7.52,11111222 
TCOON,ioos:station:TCOON:170:1,2019-10-19T19:30:00Z,27.2970,-97.4049,1.0,8.06,11111222 
TCOON,ioos:station:TCOON:170:1,2019-10-19T20:30:00Z,27.2970,-97.4049,1.0,7.61,11111222 
TCOON,ioos:station:TCOON:170:1,2019-10-19T21:30:00Z,27.2970,-97.4049,1.0,8.02,11111222 
TCOON,ioos:station:TCOON:170:1,2019-10-19T22:30:00Z,27.2970,-97.4049,1.0,7.98,11111222 
TCOON,ioos:station:TCOON:170:1,2019-10-19T23:30:00Z,27.2970,-97.4049,1.0,8.02,11111222 
TCOON,ioos:station:TCOON:170:1,2019-10-20T00:30:00Z,27.2970,-97.4049,1.0,7.77,11111222 
TCOON,ioos:station:TCOON:170:1,2019-10-20T01:30:00Z,27.2970,-97.4049,1.0,7.28,11111222 
TCOON,ioos:station:TCOON:170:1,2019-10-20T02:30:00Z,27.2970,-97.4049,1.0,6.99,11111222 
TCOON,ioos:station:TCOON:170:1,2019-10-21T22:30:00Z,27.2970,-97.4049,1.0,6.65,11111222 
TCOON,ioos:station:TCOON:170:1,2019-10-21T23:30:00Z,27.2970,-97.4049,1.0,6.7,11111222 
TCOON,ioos:station:TCOON:170:1,2019-10-22T00:30:00Z,27.2970,-97.4049,1.0,6.54,11111222 
TCOON,ioos:station:TCOON:170:1,2019-10-22T01:30:00Z,27.2970,-97.4049,1.0,6.15,11111222 
TCOON,ioos:station:TCOON:170:1,2019-10-22T03:30:00Z,27.2970,-97.4049,1.0,6.05,11111222 
TCOON,ioos:station:TCOON:170:1,2019-10-22T05:30:00Z,27.2970,-97.4049,1.0,5.73,11111222 
TCOON,ioos:station:TCOON:170:1,2019-10-22T06:30:00Z,27.2970,-97.4049,1.0,5.94,11111222 
TCOON,ioos:station:TCOON:170:1,2019-10-22T07:30:00Z,27.2970,-97.4049,1.0,5.14,11111222 
TCOON,ioos:station:TCOON:170:1,2019-10-22T08:30:00Z,27.2970,-97.4049,1.0,5.22,11111222 
TCOON,ioos:station:TCOON:170:1,2019-10-22T09:30:00Z,27.2970,-97.4049,1.0,5.25,11111222 
TCOON,ioos:station:TCOON:170:1,2019-10-22T10:30:00Z,27.2970,-97.4049,1.0,5.29,11111222 
TCOON,ioos:station:TCOON:170:1,2019-10-22T11:30:00Z,27.2970,-97.4049,1.0,5.72,11111222 
TCOON,ioos:station:TCOON:170:1,2019-10-22T12:30:00Z,27.2970,-97.4049,1.0,6.04,11111222 
TCOON,ioos:station:TCOON:170:1,2019-10-22T13:30:00Z,27.2970,-97.4049,1.0,5.84,11111222 
TCOON,ioos:station:TCOON:170:1,2019-10-22T18:30:00Z,27.2970,-97.4049,1.0,7.37,11111222 
TCOON,ioos:station:TCOON:170:1,2019-10-22T20:30:00Z,27.2970,-97.4049,1.0,7.85,11111222 
TCOON,ioos:station:TCOON:170:1,2019-10-22T23:30:00Z,27.2970,-97.4049,1.0,7.47,11111222 
TCOON,ioos:station:TCOON:170:1,2019-10-23T13:30:00Z,27.2970,-97.4049,1.0,5.6,11111222 
TCOON,ioos:station:TCOON:170:1,2019-10-23T14:30:00Z,27.2970,-97.4049,1.0,5.7,11111222 
TCOON,ioos:station:TCOON:170:1,2019-10-23T17:30:00Z,27.2970,-97.4049,1.0,6.65,11111222 
TCOON,ioos:station:TCOON:170:1,2019-10-23T18:30:00Z,27.2970,-97.4049,1.0,6.67,11111222 
TCOON,ioos:station:TCOON:170:1,2019-10-23T19:30:00Z,27.2970,-97.4049,1.0,7.13,11111222 
TCOON,ioos:station:TCOON:170:1,2019-10-23T20:30:00Z,27.2970,-97.4049,1.0,7.13,11111222 
TCOON,ioos:station:TCOON:170:1,2019-10-23T21:30:00Z,27.2970,-97.4049,1.0,7.34,11111222 
TCOON,ioos:station:TCOON:170:1,2019-10-23T22:30:00Z,27.2970,-97.4049,1.0,7.61,11111222 
TCOON,ioos:station:TCOON:170:1,2019-10-23T23:30:00Z,27.2970,-97.4049,1.0,7.3,11111222 
TCOON,ioos:station:TCOON:170:1,2019-10-24T00:30:00Z,27.2970,-97.4049,1.0,6.31,11111222 
TCOON,ioos:station:TCOON:170:1,2019-10-24T01:30:00Z,27.2970,-97.4049,1.0,6.5,11111222 
TCOON,ioos:station:TCOON:170:1,2019-10-24T02:30:00Z,27.2970,-97.4049,1.0,6.17,11111222 
TCOON,ioos:station:TCOON:170:1,2019-10-24T03:30:00Z,27.2970,-97.4049,1.0,6.04,11111222 
TCOON,ioos:station:TCOON:170:1,2019-10-24T04:30:00Z,27.2970,-97.4049,1.0,5.19,11111222 
TCOON,ioos:station:TCOON:170:1,2019-10-24T05:30:00Z,27.2970,-97.4049,1.0,5.38,11111222 
TCOON,ioos:station:TCOON:170:1,2019-10-24T06:30:00Z,27.2970,-97.4049,1.0,5.76,11111222 
TCOON,ioos:station:TCOON:170:1,2019-10-24T07:30:00Z,27.2970,-97.4049,1.0,5.73,11111222 
TCOON,ioos:station:TCOON:170:1,2019-10-24T08:30:00Z,27.2970,-97.4049,1.0,5.75,11111222 
TCOON,ioos:station:TCOON:170:1,2019-10-24T09:30:00Z,27.2970,-97.4049,1.0,5.29,11111222 
TCOON,ioos:station:TCOON:170:1,2019-10-24T10:30:00Z,27.2970,-97.4049,1.0,5.3,11111222 
TCOON,ioos:station:TCOON:170:1,2019-10-24T11:30:00Z,27.2970,-97.4049,1.0,5.05,11111222 
TCOON,ioos:station:TCOON:170:1,2019-10-24T14:30:00Z,27.2970,-97.4049,1.0,5.39,11111222 
TCOON,ioos:station:TCOON:170:1,2019-10-24T15:30:00Z,27.2970,-97.4049,1.0,5.49,11111222 
TCOON,ioos:station:TCOON:170:1,2019-10-24T16:30:00Z,27.2970,-97.4049,1.0,5.64,11111222 
TCOON,ioos:station:TCOON:170:1,2019-10-24T17:30:00Z,27.2970,-97.4049,1.0,5.98,11111222 
TCOON,ioos:station:TCOON:170:1,2019-10-24T18:30:00Z,27.2970,-97.4049,1.0,5.59,11111222 
TCOON,ioos:station:TCOON:170:1,2019-10-24T19:30:00Z,27.2970,-97.4049,1.0,6.29,11111222 
TCOON,ioos:station:TCOON:170:1,2019-10-24T20:30:00Z,27.2970,-97.4049,1.0,6.58,11111222 
TCOON,ioos:station:TCOON:170:1,2019-10-24T21:30:00Z,27.2970,-97.4049,1.0,6.11,11111222 
TCOON,ioos:station:TCOON:170:1,2019-10-24T22:30:00Z,27.2970,-97.4049,1.0,6.61,11111222 
TCOON,ioos:station:TCOON:170:1,2019-10-24T23:30:00Z,27.2970,-97.4049,1.0,7.01,11111222 
TCOON,ioos:station:TCOON:170:1,2019-10-25T00:30:00Z,27.2970,-97.4049,1.0,6.93,11111222 